GSAT-8 (GAGAN/PRN 127)

Last updated on Sun Jun 21 2026 00:03:33 GMT+0000 (Coordinated Universal Time)

1 37605U 11022A 26171.18909038 .00000080 00000+0 00000+0 0 9998 2 37605 2.1400 81.7889 0002021 193.7112 116.0490 1.00269263 53244
UTC large
Height (km)
Speed (km/s)
/
Latitude / Longitude
Inclination (degrees)
Orbital Period (minutes)
Azimuth
Elevation
Range (km)
Doppler Factor

Next 0 passes for location: London (51.5072 / 0.1276)

No passes found over London.
GSAT-8 (GAGAN/PRN 127)